Temperature
22 21 21 20 20 21 23 25 26 25 25 25 25 24 23 22 22 20 20 20 20 20 20 20 20 20 20 20 20 20 20 20 20 20 20 20 19 19 19 19 19 19 19 19 19 19 19 19 19
22 21 21 21 21 22 23 25 25 25 25 25 24 24 23 22 21 20 20 20 21 20 20 20 20 20 20 20 20 20 20 20 20 20 20 20 19 19 19 19 19 19 19 19 19 19 19 19 19
22 21 21 21 22 23 24 25 26 26 26 25 24 24 23 21 20 20 20 20 21 20 20 20 20 20 20 20 20 20 20 20 20 20 20 20 20 20 19 19 19 19 19 19 19 19 19 19 19
22 21 21 21 23 25 25 26 26 26 25 25 24 23 22 22 21 21 21 21 21 20 20 20 20 20 20 20 20 20 20 20 20 20 20 20 20 20 19 19 19 19 19 19 19 19 19 19 19
22 22 22 22 24 26 26 27 26 26 25 24 24 22 22 22 22 21 21 21 21 21 20 20 20 20 20 20 20 20 20 20 20 19 19 19 19 19 19 19 19 19 19 19 19 19 19 19 19
23 22 22 23 25 27 27 27 26 25 24 24 23 22 21 21 22 21 21 21 21 21 20 20 20 20 20 20 20 20 20 20 19 19 19 19 19 19 19 19 19 19 19 19 19 19 19 19 19
23 22 23 25 26 26 27 27 26 25 24 24 23 22 21 21 21 21 21 21 21 21 21 20 20 20 20 20 20 20 20 19 19 19 19 19 19 19 19 19 19 19 19 19 19 19 19 19 19
25 23 24 25 26 26 27 27 27 26 25 24 24 22 21 21 21 21 21 21 21 21 21 21 20 20 20 20 20 20 20 19 19 19 19 19 19 19 19 19 19 19 19 19 19 19 19 19 19
26 23 24 26 26 27 27 27 27 26 25 24 24 23 22 22 21 21 21 21 21 21 21 21 20 20 20 20 20 20 19 19 19 19 19 19 19 19 19 19 19 19 19 19 19 19 19 19 19
26 24 25 27 28 27 28 27 27 26 24 24 23 23 22 22 21 21 21 21 21 21 21 21 21 20 20 20 20 19 19 19 19 19 19 19 19 19 19 19 19 19 19 19 19 19 19 19 19
26 25 27 28 29 28 28 27 27 25 24 23 23 23 22 22 22 21 21 21 21 21 21 21 20 20 20 20 20 19 19 19 19 19 19 19 19 19 19 19 19 19 19 19 19 19 19 19 19
27 27 29 29 29 29 28 27 26 26 25 24 24 23 22 22 22 22 21 21 21 21 21 21 20 20 20 20 20 20 19 19 19 19 19 19 19 19 19 19 19 19 19 19 19 19 19 19 19
28 28 29 29 29 29 28 27 26 26 25 24 24 23 22 22 22 22 22 22 21 21 21 20 20 20 20 20 20 19 19 19 19 19 19 19 19 19 19 19 19 19 19 19 19 19 19 19 19
29 29 29 29 29 29 28 27 26 25 25 24 23 23 22 22 22 22 22 21 21 21 21 21 20 20 20 20 20 20 19 19 19 19 19 19 19 19 19 19 19 19 19 19 19 19 19 19 19
29 28 28 28 28 28 27 26 25 25 25 24 24 23 23 22 22 22 22 22 22 21 21 21 20 20 20 20 20 19 19 19 19 19 19 19 19 19 19 19 19 19 19 19 19 19 19 19 19
27 27 26 28 28 28 27 25 26 25 25 24 24 23 23 23 23 22 22 22 22 21 21 21 20 20 20 20 20 20 19 19 19 19 19 19 19 19 19 19 19 19 19 19 19 19 19 19 19
26 26 26 28 29 29 27 25 26 26 25 24 24 24 23 23 23 23 22 22 22 22 21 21 21 20 20 20 20 19 19 19 19 19 19 19 19 19 19 19 19 19 19 18 18 18 19 19 19
25 26 27 28 29 29 27 25 26 26 25 24 24 24 23 23 23 23 22 22 22 22 21 21 21 20 20 20 20 19 19 19 19 19 19 19 19 19 19 19 19 19 18 18 18 18 18 19 19
27 27 27 28 29 28 27 26 26 26 25 25 24 24 24 23 23 23 22 22 22 22 21 21 21 21 20 20 20 20 19 19 19 19 19 19 19 19 19 19 19 19 18 18 18 18 18 18 18
27 27 27 28 29 28 26 26 26 25 25 25 24 24 24 23 23 23 22 22 22 22 22 21 21 21 21 20 20 20 19 19 19 19 19 19 19 19 19 19 19 18 18 18 18 18 18 18 18
27 27 27 28 28 27 26 26 25 25 25 25 25 24 24 24 23 23 22 22 22 22 22 21 21 21 21 20 20 20 19 19 19 19 19 19 19 19 19 19 18 18 18 18 18 18 18 18 18
27 29 29 29 26 25 26 24 25 24 24 24 24 24 24 24 23 23 23 22 22 22 22 22 21 21 21 20 20 20 20 19 19 19 19 19 19 19 19 18 18 18 18 18 18 18 18 18 18
29 29 29 29 26 25 25 24 24 24 24 24 24 24 24 24 24 23 23 22 22 22 22 21 21 21 21 20 20 20 20 19 19 19 19 19 18 18 18 18 18 18 18 18 18 18 18 18 18
30 28 26 24 23 24 25 24 23 23 24 24 24 24 24 24 24 23 23 22 22 22 21 21 21 21 20 20 20 20 20 19 19 19 19 18 18 18 18 18 18 18 18 18 18 18 18 18 18
28 24 23 24 22 23 24 24 23 24 25 25 25 25 24 24 24 23 23 22 22 21 21 21 21 21 20 20 20 19 19 19 19 19 19 18 18 18 18 18 18 18 18 18 18 18 18 18 17
27 24 23 24 23 23 24 24 24 26 26 26 26 25 25 24 24 23 23 23 22 22 21 21 21 21 20 20 20 19 19 19 19 19 18 18 18 18 18 18 18 18 18 18 18 18 18 17 17
27 25 23 22 23 23 23 24 24 25 25 25 25 24 24 24 24 23 23 23 22 22 22 21 21 21 20 20 20 19 19 19 19 19 18 18 18 18 18 18 18 18 18 18 17 17 17 17 17
27 26 22 22 23 23 23 23 23 24 24 24 23 24 24 23 23 23 23 23 22 22 22 21 21 21 20 20 20 19 19 19 19 18 18 18 18 18 18 18 18 18 18 17 17 17 17 17 17
27 26 23 20 21 22 22 23 24 24 23 23 23 24 24 23 23 23 23 23 22 22 21 21 21 21 20 20 19 19 19 19 18 18 18 18 18 18 17 18 17 17 17 17 17 17 17 17 17
27 26 23 23 22 21 21 22 25 24 24 23 23 24 24 24 24 23 23 22 22 21 21 21 21 21 20 20 19 19 19 18 18 18 18 18 18 17 17 17 17 17 17 17 17 17 16 16 16
Wind_Speed
11 8 3 1 1 3 4 3 7 8 6 8 11 10 9 7 5 5 3 9 10 8 9 13 15 15 15 15 15 16 16 16 17 17 17 17 17 17 17 16 15 15 14 13 12 12 11 11 10
7 5 2 0 3 4 4 5 10 9 9 10 11 11 9 8 7 9 6 9 11 9 10 14 17 16 16 15 15 15 15 16 16 16 16 16 16 16 16 16 15 14 14 13 12 11 10 9 8
5 3 1 2 2 3 4 7 11 10 10 8 7 7 6 6 8 6 8 13 11 9 11 15 17 16 16 15 15 15 15 15 15 15 15 15 15 15 15 15 14 13 13 12 11 10 9 8 7
2 1 1 3 2 2 6 8 11 11 9 9 8 7 5 5 6 10 14 13 12 9 11 15 17 16 16 15 15 14 14 14 14 13 14 13 14 14 14 14 13 12 11 11 10 9 9 8 7
0 1 3 2 2 3 6 8 10 10 7 9 9 8 5 5 14 17 15 13 13 9 10 14 16 16 15 15 15 14 14 14 13 13 12 12 12 12 13 12 12 11 11 10 10 9 8 7 6
1 2 3 2 3 4 6 9 12 13 11 9 9 8 4 8 14 15 14 12 12 10 9 12 15 15 15 15 15 14 13 13 12 12 11 11 10 11 11 11 11 10 10 10 9 9 8 7 6
2 2 1 2 4 5 6 7 10 11 11 7 7 6 5 8 11 13 13 12 10 10 8 8 11 13 14 14 14 14 13 12 12 11 11 10 10 10 10 10 10 10 10 10 9 9 8 7 7
3 2 1 1 5 4 5 6 9 11 9 10 7 8 7 9 11 13 12 11 10 8 7 7 8 9 10 11 13 13 12 12 11 10 10 10 9 9 9 8 9 9 9 10 9 9 9 8 8
2 3 1 2 5 5 6 8 6 8 10 7 6 8 11 14 14 14 11 9 8 8 6 6 6 7 8 9 11 11 11 11 10 9 9 8 6 6 7 8 9 9 9 9 10 9 9 8 8
4 2 5 4 6 8 8 9 7 7 10 8 9 11 14 15 15 14 13 11 9 9 7 6 6 6 7 7 8 8 8 8 7 7 6 5 5 5 6 8 9 10 10 9 9 10 8 6 5
5 5 4 2 6 9 9 7 5 10 7 10 14 15 15 15 13 13 12 11 10 9 8 7 7 6 6 4 6 6 6 6 6 6 6 5 4 3 4 4 6 7 7 6 6 6 5 4 4
3 4 4 3 5 7 8 8 7 8 9 12 15 16 16 15 14 13 12 10 9 9 8 7 6 5 5 5 5 5 5 5 4 6 6 5 2 2 2 3 4 5 5 4 4 4 4 4 5
2 1 1 3 4 6 8 9 9 8 12 14 14 15 15 15 13 11 11 10 9 8 7 7 7 6 5 4 4 4 4 5 5 6 6 6 3 2 2 2 3 4 4 4 3 3 3 3 3
2 2 2 3 3 5 9 7 7 10 14 14 14 13 14 14 13 11 11 11 9 8 7 6 7 6 5 4 3 3 4 5 5 5 6 6 4 2 2 1 1 2 3 3 3 4 3 3 3
1 3 2 1 3 5 9 5 6 12 15 14 14 13 14 12 13 13 13 12 11 9 8 7 7 6 5 4 3 3 4 5 4 4 6 5 4 3 2 1 1 2 2 2 2 2 2 2 2
4 4 2 4 4 5 8 6 8 12 14 13 13 13 13 12 12 12 13 11 10 9 8 7 7 6 5 4 3 2 3 4 4 5 5 5 4 3 2 1 2 2 1 1 1 1 1 2 2
4 2 3 5 4 5 5 6 9 12 14 13 12 13 13 12 11 12 13 12 11 10 9 7 6 6 5 4 2 2 3 3 3 4 4 4 4 4 2 2 2 2 1 1 2 1 2 2 2
5 4 4 5 4 4 4 6 11 12 13 13 13 12 12 13 13 13 13 13 11 9 9 8 6 5 4 3 2 2 1 1 2 3 3 3 3 3 2 1 2 1 1 1 1 2 1 2 2
5 4 5 6 4 2 4 7 11 12 11 12 12 12 12 12 11 12 13 12 11 9 9 8 7 5 4 3 2 2 1 1 1 1 3 3 3 3 2 1 1 1 1 2 2 2 1 1 0
4 4 4 6 5 1 3 4 7 10 13 14 15 14 13 10 10 12 12 11 11 10 9 8 7 6 5 4 3 2 2 1 2 1 1 3 3 3 2 1 1 1 1 1 1 1 0 1 1
5 5 5 4 3 4 3 1 3 6 7 8 10 11 11 13 13 13 13 11 11 11 11 10 8 7 6 5 3 2 1 1 1 0 1 1 2 3 2 2 2 1 1 1 2 1 2 1 1
6 6 4 1 2 2 2 2 4 6 6 8 9 10 12 12 12 12 13 12 12 12 11 9 9 7 6 6 5 4 3 3 2 2 2 2 2 2 2 2 2 1 1 1 1 1 1 2 1
6 3 1 0 1 2 2 3 5 4 6 9 11 12 13 13 14 14 14 14 12 12 11 9 8 7 6 6 7 5 4 3 1 1 1 1 1 2 2 1 1 2 1 1 1 1 1 2 2
2 4 7 7 5 2 4 3 5 6 10 10 11 13 13 12 12 12 11 11 10 10 9 9 8 7 6 7 6 6 5 4 2 1 1 1 1 2 1 1 1 2 1 1 1 2 2 2 2
3 5 4 6 5 6 4 1 7 9 10 12 13 13 12 12 11 11 12 12 11 10 10 9 9 8 7 7 6 5 5 4 4 3 2 2 1 1 2 1 1 1 1 1 1 1 1 1 1
3 8 7 4 5 6 4 2 7 6 6 8 10 11 12 12 11 11 12 12 12 11 10 10 10 8 7 7 6 4 4 3 3 3 2 2 2 3 2 1 1 1 1 1 1 1 1 1 1
3 3 8 7 2 1 4 4 6 3 2 5 8 10 12 12 12 11 11 10 10 10 10 10 9 8 7 7 7 5 5 4 3 3 2 2 2 2 1 1 1 0 1 1 1 1 1 1 1
6 6 5 5 3 3 4 3 4 5 4 5 6 9 10 10 11 10 10 10 9 9 8 8 9 9 7 7 7 6 5 4 4 3 2 2 2 1 1 1 1 1 1 1 1 1 1 1 2
2 1 4 4 6 6 4 6 5 8 7 7 6 7 9 10 11 11 10 9 8 8 8 8 8 7 7 7 6 5 5 4 4 3 3 3 2 1 1 1 1 1 1 1 1 1 1 1 2
5 4 6 4 5 5 4 6 4 4 6 7 6 7 9 10 10 9 9 8 8 8 8 8 8 8 7 6 5 5 4 4 4 4 3 3 2 2 2 1 1 2 1 1 1 2 1 1 2
Wind_Direction
171 163 163 198 30 49 66 77 94 84 66 66 77 82 83 67 93 126 139 139 136 140 141 137 130 127 123 120 118 116 116 116 116 116 116 118 121 124 128 128 130 131 131 132 132 133 132 131 131
164 165 185 9 66 71 70 95 88 91 114 106 82 79 75 69 85 112 122 139 135 132 131 133 129 127 126 124 122 121 121 120 121 121 121 122 124 127 129 130 131 133 134 135 136 137 137 137 138
175 191 205 48 80 122 116 104 104 102 103 97 88 66 70 97 112 125 141 139 129 124 129 132 128 128 129 128 128 126 124 124 126 125 126 128 129 131 132 134 135 136 137 139 142 145 147 147 148
160 158 15 67 105 144 130 127 113 105 83 74 92 76 69 96 117 131 137 135 129 128 134 135 131 131 131 131 131 130 129 128 129 130 132 134 134 137 137 139 142 143 144 146 151 155 158 160 163
155 76 41 52 88 113 128 122 110 104 95 86 90 95 79 74 117 129 137 136 132 131 137 137 135 134 134 133 132 133 134 134 134 135 136 137 137 139 143 145 147 150 154 156 162 167 171 174 181
111 72 63 86 103 99 113 116 109 102 106 103 99 100 91 120 125 133 135 134 133 134 136 139 138 137 137 136 136 135 136 140 140 139 139 142 143 145 150 155 157 161 165 169 174 180 183 189 199
169 118 130 136 114 108 128 122 117 121 122 125 123 103 117 131 134 134 130 130 129 131 131 133 142 141 141 142 143 143 142 142 144 146 148 150 154 155 160 166 169 173 177 181 188 193 199 209 219
180 96 33 121 116 119 126 115 121 126 117 128 125 122 148 155 136 128 125 126 127 128 131 133 140 143 147 150 150 149 148 148 150 153 158 161 164 168 172 178 184 188 191 194 200 207 213 221 230
139 73 263 188 138 140 126 110 112 107 116 119 111 127 146 143 133 126 122 122 128 133 137 139 143 144 149 153 157 156 157 158 162 166 167 170 179 184 189 196 200 203 208 210 214 219 225 228 236
140 158 228 211 150 141 131 128 132 112 110 105 104 116 133 136 136 136 139 141 143 147 153 150 148 151 154 159 159 163 164 166 171 178 179 184 193 203 204 208 214 218 219 220 225 229 231 232 239
168 185 221 179 146 136 132 128 111 123 125 142 142 144 144 141 142 144 148 150 153 155 156 159 156 158 161 160 157 166 169 171 181 190 192 188 191 209 215 216 225 226 225 225 229 237 232 227 231
170 207 194 161 146 137 138 136 117 126 144 150 149 150 147 150 153 152 151 150 151 151 154 156 155 154 162 158 161 169 172 176 184 197 196 182 177 194 201 208 215 219 221 219 223 229 229 234 232
154 213 179 159 142 127 122 131 127 134 138 140 141 145 149 154 155 153 149 148 148 146 150 154 151 150 149 145 159 162 173 180 184 187 195 185 180 192 202 214 219 230 222 213 212 215 215 221 213
233 164 148 164 144 127 120 119 113 146 144 144 145 148 156 158 157 152 149 151 155 154 153 153 148 146 140 141 146 149 168 173 177 183 189 187 187 188 191 193 225 239 229 217 208 210 210 215 208
346 50 11 182 121 138 114 105 144 154 149 151 157 158 157 161 159 159 160 158 159 156 151 151 149 144 143 143 151 152 165 157 166 180 185 183 190 195 184 190 237 255 253 240 216 223 208 219 222
14 34 352 263 160 169 126 164 172 159 154 158 163 163 160 163 163 161 157 155 154 151 151 154 150 144 146 142 144 144 151 150 167 174 176 185 195 188 173 198 243 250 262 244 219 215 209 225 231
8 344 282 278 204 167 145 175 179 168 162 167 170 167 163 162 163 162 159 157 157 156 152 148 142 148 151 142 136 133 139 145 170 170 171 189 201 198 185 212 245 245 251 245 239 214 203 215 240
261 263 264 253 235 158 155 178 175 178 171 172 171 167 165 167 171 164 162 160 158 156 152 149 147 152 149 133 109 91 100 146 165 169 181 188 199 198 188 207 259 255 242 256 235 217 210 209 227
240 255 265 268 258 158 182 177 181 179 173 173 173 173 174 175 169 161 161 161 157 155 154 156 155 161 153 146 151 155 185 205 191 194 183 187 193 189 160 225 248 248 229 237 223 201 204 246 264
251 259 273 297 288 149 153 183 182 173 180 181 179 178 177 169 163 164 162 165 167 166 165 164 165 166 169 175 175 171 173 199 195 215 188 194 191 195 186 196 224 233 234 262 242 164 173 268 111
249 228 231 242 334 28 82 354 192 185 177 173 176 175 175 175 171 170 168 171 171 172 173 175 176 172 172 167 145 124 89 29 28 324 237 231 202 203 204 205 212 218 190 219 225 196 169 217 271
249 245 221 213 35 284 135 223 249 186 179 187 185 176 178 175 171 173 172 174 179 182 178 174 174 173 174 165 159 157 168 190 217 209 217 241 217 211 213 199 197 214 200 202 222 185 190 175 229
228 249 281 306 44 5 11 130 272 164 189 205 196 185 182 178 175 178 179 179 180 178 176 176 171 174 174 170 173 171 182 201 209 179 201 251 267 236 226 208 203 216 210 185 223 212 199 184 196
204 41 21 34 58 346 261 173 253 208 202 198 195 188 183 176 177 179 176 170 174 173 171 170 168 178 178 177 178 179 182 183 170 182 203 246 265 271 274 232 217 221 210 177 212 225 218 214 208
58 76 24 357 359 263 275 192 246 231 204 192 192 186 179 169 168 171 175 175 172 171 175 175 174 183 182 179 183 186 188 180 182 194 200 212 242 265 267 273 243 230 203 171 188 198 225 222 225
222 138 158 200 234 275 326 252 269 248 204 184 176 168 165 170 172 170 172 174 173 173 174 175 181 188 185 182 186 181 175 177 190 197 201 210 225 236 236 230 218 203 166 177 162 192 232 217 226
202 201 175 153 195 282 283 281 313 327 122 151 152 153 165 171 170 170 169 167 172 174 174 176 179 184 183 181 180 180 183 185 192 196 201 217 228 229 225 201 190 180 184 196 189 209 234 229 230
175 170 99 122 173 250 282 265 238 236 183 158 159 163 171 167 166 163 165 168 170 176 174 171 175 177 179 182 185 189 190 193 193 189 206 221 232 233 226 228 229 248 238 218 197 234 242 233 259
298 107 125 134 158 167 233 266 233 197 178 166 170 170 167 167 167 165 167 168 166 168 170 172 173 172 178 181 181 179 184 188 187 198 213 217 229 230 224 214 215 232 244 232 199 254 259 242 270
187 193 159 172 230 176 177 257 285 179 165 156 155 160 162 167 165 159 157 154 156 166 174 173 172 174 180 176 171 181 186 187 192 207 219 214 216 225 225 202 208 231 238 232 221 251 260 249 261
Height
1508 1509 1509 1510 1511 1516 1516 1508 1500 1500 1501 1501 1500 1501 1505 1508 1513 1521 1519 1517 1518 1516 1516 1517 1519 1520 1521 1522 1522 1523 1524 1525 1526 1527 1528 1529 1530 1531 1532 1534 1535 1537 1538 1540 1541 1542 1543 1544 1545
1509 1509 1510 1511 1516 1526 1519 1505 1502 1501 1502 1502 1503 1505 1506 1511 1512 1515 1516 1518 1519 1517 1516 1517 1520 1521 1522 1523 1524 1525 1526 1526 1528 1528 1529 1531 1532 1533 1534 1535 1536 1538 1539 1540 1542 1543 1544 1545 1546
1510 1510 1512 1512 1517 1522 1516 1504 1502 1502 1503 1502 1505 1507 1509 1513 1515 1516 1517 1519 1520 1519 1519 1520 1522 1523 1524 1525 1526 1526 1527 1528 1529 1530 1531 1532 1533 1534 1535 1537 1538 1539 1540 1541 1543 1544 1545 1546 1547
1511 1512 1513 1516 1517 1509 1504 1501 1501 1502 1504 1505 1506 1510 1513 1516 1516 1517 1519 1521 1521 1522 1523 1523 1524 1525 1526 1527 1527 1528 1529 1530 1531 1532 1533 1534 1535 1536 1537 1538 1539 1540 1541 1542 1544 1545 1546 1547 1548
1510 1512 1516 1520 1514 1504 1500 1500 1501 1502 1505 1508 1508 1512 1516 1518 1518 1519 1520 1522 1522 1523 1525 1526 1526 1527 1527 1528 1529 1529 1530 1531 1532 1533 1534 1535 1536 1537 1538 1539 1540 1541 1542 1543 1544 1545 1546 1547 1548
1511 1513 1522 1524 1514 1504 1501 1501 1502 1505 1508 1510 1511 1514 1519 1520 1520 1521 1522 1524 1525 1525 1526 1527 1528 1528 1529 1530 1530 1531 1532 1533 1534 1535 1536 1537 1537 1538 1539 1540 1541 1542 1543 1544 1545 1546 1547 1547 1548
1512 1514 1520 1517 1512 1507 1504 1503 1503 1506 1508 1510 1511 1515 1520 1522 1522 1523 1524 1525 1526 1527 1528 1528 1529 1530 1530 1531 1532 1533 1533 1534 1535 1536 1537 1538 1538 1539 1540 1541 1542 1543 1543 1544 1545 1546 1547 1547 1548
1509 1512 1516 1514 1512 1509 1503 1502 1504 1505 1509 1511 1512 1515 1519 1522 1523 1524 1526 1527 1528 1528 1529 1530 1530 1531 1531 1532 1533 1534 1534 1535 1536 1537 1538 1539 1539 1540 1541 1542 1542 1543 1544 1544 1545 1546 1546 1547 1548
1509 1516 1519 1512 1509 1507 1503 1503 1506 1507 1509 1512 1512 1513 1517 1521 1523 1525 1526 1528 1528 1529 1530 1531 1531 1532 1532 1533 1534 1534 1535 1536 1537 1538 1539 1539 1540 1541 1541 1542 1542 1543 1543 1543 1544 1545 1546 1547 1548
1507 1517 1511 1501 1500 1501 1502 1503 1505 1509 1510 1513 1514 1516 1518 1521 1523 1524 1526 1527 1528 1529 1530 1531 1532 1532 1533 1533 1534 1535 1535 1536 1537 1538 1539 1540 1540 1541 1541 1542 1542 1542 1542 1542 1543 1544 1545 1546 1547
1504 1508 1501 1499 1497 1499 1501 1504 1505 1507 1512 1512 1513 1516 1519 1521 1523 1524 1526 1527 1528 1529 1531 1532 1532 1533 1533 1534 1535 1535 1536 1537 1538 1538 1539 1540 1540 1541 1541 1541 1541 1541 1541 1542 1542 1543 1544 1544 1545
1502 1499 1498 1498 1497 1498 1500 1503 1506 1507 1510 1512 1512 1515 1518 1520 1522 1524 1525 1527 1529 1530 1531 1532 1533 1533 1534 1534 1535 1535 1536 1537 1537 1538 1539 1540 1540 1540 1540 1541 1541 1541 1541 1541 1541 1542 1542 1543 1544
1499 1498 1497 1497 1496 1498 1500 1502 1504 1508 1509 1512 1514 1516 1518 1520 1522 1525 1526 1528 1529 1531 1532 1532 1533 1534 1534 1535 1535 1535 1536 1537 1538 1538 1539 1539 1540 1540 1540 1540 1540 1539 1539 1540 1541 1541 1541 1542 1542
1498 1497 1497 1497 1496 1498 1501 1504 1505 1509 1510 1512 1515 1517 1519 1520 1522 1524 1526 1527 1529 1531 1532 1533 1534 1535 1535 1535 1536 1536 1537 1537 1538 1539 1539 1539 1539 1539 1539 1540 1539 1539 1539 1539 1540 1540 1540 1540 1541
1497 1498 1498 1497 1496 1499 1501 1508 1507 1508 1510 1512 1514 1516 1518 1521 1522 1523 1525 1527 1528 1530 1532 1533 1534 1535 1536 1536 1536 1537 1537 1538 1538 1539 1539 1539 1539 1539 1539 1539 1539 1539 1538 1538 1538 1539 1539 1539 1539
1499 1504 1510 1499 1496 1498 1504 1516 1507 1507 1509 1511 1513 1515 1517 1520 1521 1523 1525 1527 1528 1530 1531 1533 1534 1535 1536 1536 1537 1537 1538 1538 1538 1539 1539 1539 1539 1539 1539 1538 1538 1538 1537 1537 1537 1537 1537 1538 1538
1509 1517 1513 1503 1494 1495 1502 1510 1505 1506 1507 1509 1511 1513 1516 1518 1521 1522 1524 1526 1528 1529 1531 1532 1534 1535 1536 1537 1537 1538 1538 1538 1538 1539 1538 1538 1538 1538 1537 1537 1537 1537 1536 1536 1536 1536 1536 1536 1536
1520 1516 1511 1506 1495 1494 1501 1504 1502 1504 1505 1506 1509 1511 1514 1516 1518 1520 1523 1525 1527 1529 1531 1532 1533 1534 1536 1537 1537 1538 1538 1538 1538 1538 1538 1538 1537 1537 1537 1536 1536 1535 1535 1534 1534 1534 1535 1535 1535
1506 1508 1510 1501 1491 1495 1500 1502 1501 1501 1504 1506 1507 1509 1512 1514 1517 1519 1522 1524 1526 1528 1529 1531 1532 1533 1535 1536 1536 1537 1537 1537 1537 1537 1537 1537 1536 1536 1536 1535 1534 1534 1533 1533 1532 1532 1533 1533 1533
1503 1508 1507 1499 1490 1494 1501 1502 1499 1500 1501 1502 1504 1507 1510 1513 1516 1518 1520 1522 1524 1526 1528 1529 1531 1532 1533 1534 1535 1536 1537 1537 1537 1537 1536 1536 1536 1535 1535 1534 1533 1533 1532 1531 1531 1531 1531 1532 1532
1503 1505 1504 1503 1495 1496 1502 1509 1505 1502 1502 1503 1504 1506 1509 1510 1512 1515 1518 1520 1522 1524 1526 1528 1529 1530 1532 1533 1534 1535 1536 1536 1536 1536 1536 1536 1535 1535 1534 1533 1533 1532 1531 1530 1529 1529 1530 1530 1531
1505 1493 1492 1495 1506 1515 1510 1529 1511 1504 1504 1504 1504 1505 1506 1508 1511 1513 1515 1517 1520 1522 1524 1526 1527 1529 1530 1531 1533 1533 1534 1534 1534 1535 1535 1535 1534 1534 1533 1533 1532 1531 1530 1529 1529 1529 1529 1529 1529
1492 1486 1489 1493 1504 1514 1513 1525 1518 1506 1507 1504 1502 1502 1503 1505 1507 1510 1512 1514 1517 1520 1522 1524 1526 1527 1529 1530 1531 1532 1532 1533 1533 1534 1534 1534 1533 1533 1532 1531 1531 1530 1529 1529 1529 1528 1528 1528 1528
1483 1489 1495 1502 1513 1529 1517 1523 1523 1508 1501 1498 1497 1498 1500 1502 1506 1508 1510 1513 1515 1518 1520 1522 1523 1525 1527 1528 1529 1530 1530 1531 1532 1532 1532 1532 1532 1531 1531 1530 1529 1529 1528 1527 1527 1527 1527 1526 1526
1487 1508 1530 1534 1541 1536 1515 1517 1515 1493 1488 1490 1491 1493 1497 1500 1504 1506 1508 1510 1512 1515 1518 1519 1521 1523 1524 1526 1527 1528 1529 1529 1530 1530 1530 1530 1530 1530 1529 1529 1528 1527 1527 1526 1525 1525 1524 1524 1523
1490 1504 1531 1543 1546 1534 1517 1519 1504 1485 1483 1485 1487 1490 1494 1498 1501 1503 1505 1507 1510 1512 1515 1517 1518 1520 1522 1523 1525 1526 1527 1528 1528 1528 1528 1528 1528 1528 1527 1527 1526 1526 1525 1524 1524 1523 1522 1522 1521
1490 1499 1501 1522 1528 1535 1527 1512 1497 1485 1485 1486 1487 1489 1492 1495 1498 1501 1504 1506 1508 1511 1512 1514 1516 1518 1519 1521 1522 1523 1524 1525 1526 1526 1527 1526 1526 1526 1526 1525 1525 1524 1523 1522 1521 1520 1520 1519 1518
1480 1487 1505 1520 1535 1542 1530 1520 1513 1496 1491 1488 1488 1489 1491 1493 1496 1499 1502 1504 1506 1509 1511 1513 1514 1515 1517 1519 1520 1521 1522 1523 1524 1524 1524 1524 1524 1524 1524 1523 1523 1522 1521 1520 1519 1518 1517 1517 1516
1484 1489 1501 1515 1521 1535 1540 1526 1492 1490 1487 1487 1487 1488 1490 1492 1494 1496 1499 1502 1505 1507 1509 1511 1512 1513 1515 1516 1518 1519 1520 1521 1521 1522 1522 1522 1522 1521 1521 1521 1520 1519 1518 1517 1516 1515 1515 1514 1513
1477 1484 1496 1514 1518 1521 1528 1519 1484 1484 1484 1484 1486 1486 1488 1490 1492 1495 1498 1500 1503 1505 1507 1508 1509 1510 1512 1514 1515 1517 1518 1518 1518 1519 1519 1519 1519 1519 1519 1518 1517 1517 1516 1515 1513 1513 1512 1511 1511